Meteo Giornale » Osservazioni meteo Italia » Treviso-S Angelo

ore: 05:20 - Osservazioni Meteo Treviso-S Angelo
Lat. 45° 39' N Lon. 12° 11' E Alt. 18 metri s.l.m.

molto_nuvoloso Europe/Rome

3 °C

Molto Nuvoloso

Temp. 24 Ore

3 °C

14 °C

Nord

3.7 Km/h

Dew point 2 °C

Umidità 93 %

Visibilità  10 Km

Il sole sorge alle ore 07:15

Il sole tramonta alle ore 16:38

Data e Ora Cielo e Fenomeni T °C DP °C Um. % Pres. hPa Vis. km Vento km/h
Oggi h: 05:20 molto_nuvoloso Molto Nuvoloso 3 2 93 1014 10 N 3.7
Oggi h: 04:50 molto_nuvoloso Molto Nuvoloso 3 2 93 1013 10 N 3.7
Oggi h: 04:20 molto_nuvoloso Molto Nuvoloso 4 2 86 1014 10 N 1.8
Oggi h: 03:50 molto_nuvoloso Molto Nuvoloso 4 2 86 1014 10 N 3.7
Oggi h: 03:20 coperto Coperto 4 2 86 1014 10 N 3.7
Oggi h: 02:50 coperto Coperto 4 2 86 1015 10 N 3.7
Oggi h: 02:20 molto_nuvoloso Molto Nuvoloso 4 2 86 1015 10 N 1.8
Oggi h: 01:50 molto_nuvoloso Molto Nuvoloso 4 2 86 1016 10 N 3.7
Oggi h: 01:20 molto_nuvoloso Molto Nuvoloso 4 2 86 1016 10 N 3.7
Oggi h: 00:50 nuvoloso Nuvoloso 5 3 86 1016 10 N 5.5
Oggi h: 00:20 poco_nuvoloso Poco Nuvoloso 5 3 86 1016 10 N 5.5
Ieri h: 23:50 poco_nuvoloso Poco Nuvoloso 4 3 93 1016 9 N 5.5
Ieri h: 23:20 nuvoloso Nuvoloso 5 4 93 1017 7 N 5.5
Ieri h: 22:50 sereno Sereno 4 3 93 1017 10 N 5.5
Ieri h: 22:20 sereno Sereno 5 4 93 1017 10 N 5.5
Ieri h: 21:50 sereno Sereno 5 4 93 1017 10 N 3.7
Ieri h: 21:20 sereno Sereno 5 4 93 1017 10 N 1.8
Ieri h: 20:50 sereno Sereno 5 4 93 1017 10 N 1.8
Ieri h: 20:20 sereno Sereno 6 5 93 1017 10 N 1.8
Ieri h: 19:50 sereno Sereno 6 4 86 1017 10 N 1.8
Ieri h: 19:20 sereno Sereno 6 5 93 1017 10 N 1.8
Ieri h: 18:50 sereno Sereno 7 5 87 1017 10 N 1.8
Ieri h: 18:20 sereno Sereno 7 6 93 1016 10 N 1.8
Ieri h: 17:20 sereno Sereno 9 5 75 1017 10 N 1.8
Ieri h: 16:50 sereno Sereno 11 5 66 1017 10 N 3.7
Ieri h: 16:20 sereno Sereno 13 5 58 1017 10 N 5.5
Ieri h: 15:50 sereno Sereno 13 5 58 1017 10 N 3.7
Ieri h: 15:20 sereno Sereno 13 5 58 1017 10 N 5.5
Ieri h: 14:50 sereno Sereno 14 5 54 1017 10 SO 7.4
Ieri h: 14:20 sereno Sereno 13 4 54 1017 10 SO 7.4
Ieri h: 13:50 sereno Sereno 13 5 58 1017 10 N 5.5
Ieri h: 13:20 sereno Sereno 13 5 58 1018 10 O/SO 7.4
Ieri h: 12:50 sereno Sereno 14 4 50 1018 10 N 3.7
Ieri h: 12:20 sereno Sereno 13 4 54 1018 10 N 1.8
Ieri h: 11:50 sereno Sereno 12 4 57 1019 10 N 3.7
Ieri h: 11:20 sereno Sereno 12 4 57 1019 10 N 3.7
Ieri h: 10:50 sereno Sereno 11 5 66 1019 10 N 5.5
Ieri h: 10:20 sereno Sereno 10 4 66 1019 10 N 5.5
Ieri h: 09:50 sereno Sereno 9 4 70 1019 10 N/NE 7.4
Ieri h: 09:20 sereno Sereno 7 5 87 1019 10 N 5.5
Ieri h: 08:50 sereno Sereno 6 4 86 1019 10 N 5.5
Ieri h: 08:20 sereno Sereno 4 4 100 1019 10 N 1.8
Ieri h: 07:50 sereno Sereno 3 3 100 1018 10 N 0
Ieri h: 07:20 sereno Sereno 3 2 93 1018 10 N 1.8
Ieri h: 06:50 sereno Sereno 3 3 100 1018 10 N 1.8
Ieri h: 06:20 sereno Sereno 3 3 100 1018 10 N 3.7
Ieri h: 05:50 sereno Sereno 3 2 93 1018 10 N 1.8